TimeCST,TemperatureF,Dew PointF,Humidity,Sea Level PressureIn,VisibilityMPH,Wind Direction,Wind SpeedMPH,Gust SpeedMPH,PrecipitationIn,Events,Conditions,WindDirDegrees,DateUTC
12:53 AM,21.9,18.0,85,29.96,8.0,SSE,6.9,-,N/A,,Clear,150,2013-02-05 06:53:00
1:53 AM,21.0,18.0,88,29.95,8.0,South,6.9,-,N/A,,Clear,190,2013-02-05 07:53:00
2:53 AM,23.0,19.9,88,29.93,8.0,South,6.9,-,N/A,,Clear,180,2013-02-05 08:53:00
3:53 AM,21.9,19.0,89,29.93,7.0,South,9.2,-,N/A,,Clear,190,2013-02-05 09:53:00
4:53 AM,25.0,21.0,85,29.92,7.0,SSW,9.2,-,N/A,,Scattered Clouds,200,2013-02-05 10:53:00
5:53 AM,25.0,21.9,88,29.92,7.0,SW,8.1,-,N/A,,Scattered Clouds,230,2013-02-05 11:53:00
6:53 AM,25.0,21.9,88,29.96,6.0,West,5.8,-,N/A,,Scattered Clouds,280,2013-02-05 12:53:00
7:53 AM,25.0,21.9,88,29.94,5.0,SSW,10.4,-,N/A,,Partly Cloudy,210,2013-02-05 13:53:00
8:53 AM,30.0,25.0,82,29.97,7.0,SW,11.5,-,N/A,,Scattered Clouds,220,2013-02-05 14:53:00
9:53 AM,36.0,28.0,73,29.97,8.0,WSW,11.5,-,N/A,,Partly Cloudy,250,2013-02-05 15:53:00
10:53 AM,42.1,28.9,60,29.99,10.0,West,10.4,-,N/A,,Clear,260,2013-02-05 16:53:00
11:53 AM,48.9,30.0,48,29.99,9.0,West,8.1,-,N/A,,Partly Cloudy,270,2013-02-05 17:53:00
12:53 PM,52.0,30.0,43,29.99,10.0,NW,9.2,-,N/A,,Clear,320,2013-02-05 18:53:00
1:53 PM,55.9,30.0,37,29.99,10.0,NNW,12.7,-,N/A,,Clear,340,2013-02-05 19:53:00
2:53 PM,55.9,28.9,36,29.99,10.0,NW,11.5,-,N/A,,Clear,320,2013-02-05 20:53:00
3:53 PM,55.0,26.1,33,30.02,10.0,NNW,10.4,-,N/A,,Clear,330,2013-02-05 21:53:00
4:53 PM,53.1,25.0,34,30.02,10.0,NNW,9.2,-,N/A,,Clear,330,2013-02-05 22:53:00
5:53 PM,48.0,24.1,39,30.04,10.0,NNW,5.8,-,N/A,,Clear,330,2013-02-05 23:53:00
6:53 PM,42.1,25.0,51,30.05,10.0,North,8.1,-,N/A,,Partly Cloudy,360,2013-02-06 00:53:00
7:53 PM,42.1,26.1,53,30.08,10.0,North,4.6,-,N/A,,Clear,360,2013-02-06 01:53:00
8:53 PM,39.0,25.0,57,30.10,10.0,SE,3.5,-,N/A,,Clear,140,2013-02-06 02:53:00
9:53 PM,39.0,25.0,57,30.10,10.0,ESE,3.5,-,N/A,,Clear,110,2013-02-06 03:53:00
10:53 PM,41.0,27.0,57,30.11,10.0,East,5.8,-,N/A,,Clear,100,2013-02-06 04:53:00
11:53 PM,39.9,27.0,60,30.11,10.0,East,8.1,-,N/A,,Clear,100,2013-02-06 05:53:00